Погода Кочубей

Погода Кочубей : погода сейчас, прогноз погоды и архив. Всё, что Вы хотите узнать о погоде Кочубей!

Поиск расширенной информации на нашем сайте:

Другие новости

Новости СМИ2

Главная страница сайта

Новости сайта

03.07.2017

Напоминаем, что на нашем специализированном сайте Метеоцентр.Азия вы можете получить высокодетализированные автоматические прогнозы погоды по пунктам России, СНГ и мира в авиационном формате (включающие направление и скорость ветра, видимость, явления погоды, количество и форму облачности, нижнюю и верхнюю границу облачности).


Погода Кочубей - сегодня

Время (UTC), дата Ветер
(°,м/с) 
Видим.   Явления Облачность Т
(°С)
Тd
(°С)
f(%) Тe
(°С)
Pmin
(гПа)
dP
(гПа)
Po
(мм)
O2
(г/м3)
Тmin Tmax R s Состояние
почвы
12 09.12.17 130 (ЮВ) 20000 м    4/0 средняя 
[Ac trans]
+1.6 -3.3 70 -1  1025.7  -0.7  771  309           
15 09.12.17 100 (В) 4000 м    ясно 
-0.5 -3.1 83 -2  1026.2  0.5  772  312    +2.6       
18 09.12.17 110 (В) 4000 м    ясно 
-2.4 -3.6 91 -3  1025.2  -1  771  314           
21 09.12.17 090 (В) 4000 м    ясно 
-1.3 -2 95 -2  1024.5  -0.7  770  312           
00 10.12.17 080 (В) 4000 м    ясно 
-0 -0.4 97 -1  1024.4  0.1  770  310           
03 10.12.17 100 (В) 0200 м  туман [диам. гололёда 0 мм]  н/о 
-1.7 -1.9 99 -4  1024.1  -0.3  770  313  -2.9         
06 10.12.17 090 (В) 20000 м  {туман}  4/0 верхняя 
[Ci fib]
+2.6 +2.2 97 +1  1023.8  -0.3  770  307           
09 10.12.17 100 (В) 20000 м    8/6 600 м средняя 
[Sc|Ac trans]
+8.4 +5.2 80 +6  1022.3  -1.6  769  300           
12 10.12.17 070 (В) 6{10}  20000 м    10/10 600 м 
[Sc]
+7.5 +5.5 87 +5  1021.5  -0.7  768  300           
15 10.12.17 080 (В) 6{11}  4000 м    10/10 600 м 
[Sc]
+5.9 +5.3 96 +4  1020.8  -0.7  768  302    +9.5       
18 10.12.17 080 (В) 4000 м  дымка  10/10 600 м 
[Sc]
+6.3 +5.9 97 +4  1019.2  -1.5  767  301           
21 10.12.17 090 (В) 4000 м  дымка  10/10 600 м 
[Sc]
+6.2 +5.8 97 +5  1018.1  -1.2  766  301           
00 11.12.17 070 (В) 4000 м    10/10 600 м 
[Sc]
+6.3 +5.5 95 +6  1017.5  -0.6  765  300           
03 11.12.17 110 (В) 4000 м    10/10 600 м 
[Sc]
+6.5 +5.4 93 +6  1018.5  766  301  +5.7         
06 11.12.17 250 (З) 20000 м    10/10 600 м 
[Sc]
+6.6 +5.2 91 +6  1022.5  769  302           
09 11.12.17 240 (ЮЗ) //  20000 м  в посл. час дождь{ливн. осадки}  9/9 300 м 
+7.8 +5.6 86 +8               
12 11.12.17 270 (З) //  20000 м    9/8 600 м средняя 
[Sc|Ac As]
+8 +5.3 83 +8  1027.9  2.4  773  302           
15 11.12.17 290 (З) 4000 м    6/6 600 м 
[Sc]
+5.6 +3.5 86 +5  1028.3  0.5  773  305    +8       
18 11.12.17 230 (ЮЗ) 4000 м    ясно 
+1.8 +0.7 92 +1  1029.5  1.2  774  310           
21 11.12.17 тихо ()   4000 м    10/10 600 м 
[Sc]
+1.7 +0.6 92 +2  1029.4  -0.1  774  310           
00 12.12.17 140 (ЮВ) 4000 м    10/10 600 м 
[Sc]
+1.6 +0.8 94 +2  1028.4  -0.9  773  310           
03 12.12.17 330 (СЗ) 4000 м    10/10 600 м 
[Sc]
+1.5 +0.7 94 +2  1029.1  0.7  774  310  +0.9         
06 12.12.17 070 (В) 20000 м    10/10 600 м 
[Sc]
+2.5 +1.7 94 +3  1029.6  0.5  774  309           
09 12.12.17 120 (ЮВ) 20000 м    8/8 600 м 
[Sc]
+6.4 +2.5 76 +5  1027.9  -1.8  773  304           
12 12.12.17 110 (В) 20000 м    10/10 600 м 
[Sc]
+7.3 +1.4 66 +8  1028.2  0.4  773  303           
Время (UTC), дата Ветер
(°,м/с) 
Видим.   Явления Облачность Т
(°С)
Тd
(°С)
f(%) Тe
(°С)
Pmin
(гПа)
dP
(гПа)
Po
(мм)
O2
(г/м3)
Тmin Tmax R s Состояние
почвы

Для получения пояснительной информации подведите курсор к названию столбца.

ПОГОДА Кочубей - архив

Всё, что Вы хотите узнать о погоде Кочубей - удобно и подробно!

Выберите нужную дату (начиная с 1 января 2015* года) и нажмите кнопку "Найти".
Будут отображены архивные сводки погоды по пункту Кочубей, начиная с указанной даты.


Отображать данные в формате CSV (для использования в таблицах Excel)


Внимание! Наш архив погоды предназначен исключительно для личного некоммерческого использования в познавательных целях. Если Вам необходимы официальные справки о состоянии погоды (для производственных, юридических, коммерческих и т.п. целей), обращайтесь в органы Росгидромета.

*Примечание: данная дата относится к архиву по метеостанциям СССР (Россия, СНГ, Балтия).
Архив по метеостанциям Зарубежной Европы и Азии (кроме Китая) хранится 10 дней, по другим регионам земного шара (Китай, Африка, Америка, Австралия, Океания) - 1 день.

Кочубей - район местоположения метеостанции


Название, широта, долгота, высота метеостанции:
Кочубей 44.4°ш. 46.6°д. -21 м над ур. моря [Российская Федерация]

Дополнительная информация

В oтличие oт бoльшинства пoгoдных сайтoв мы публикуем пoдрoбную метеoинфoрмацию в детальнoм прoфессиoнальнoм фoрмате.

Характеристики температуры и влажнoсти вoздуха измеряются на высoте 2 м в тени вдали oт зданий и деревьев.
Скoрoсть ветра измеряется на высoте 10 м (на урoвне рoста челoвека скoрoсть ветра ниже в 1.5-2 раза). Если метеoстанция нахoдится в гoрoде или в лесу, тo скoрoсть ветра занижена на 2-4 м/с пo сравнению с oткрытым местoм. Скoрoсть ветра над акватoриями крупных рек и oзёр, а также на вершинах хoлмoв на 2-5 м/с выше, чем в oбычных услoвиях.
Атмoсфернoе давление в разных тoчках местнoсти мoжет значительнo oтличаться oт давления на метеoстанции, в зависимoсти oт услoвий рельефа (при пoдъёме на 10 м давление пoнижается примернo на 1 мм рт.ст.).